SP5XSL-4 Weather Reports


time (UTC)temp
F
wind
direction
speed
knots
gust
knots
rain 1hr
in
rain 24hr
in
rain mn
in
humidity
%
barometer
mb
20260505053229 60 98 6.1 9.6 0.00 0.00 0.00 1017.3
20260505052402 60 115 1.7 3.5 0.00 0.00 0.00 1017.7
20260505051403 59 101 1.7 3.5 0.00 0.00 0.00 1017.7
20260505050422 57 112 1.7 3.5 0.00 0.00 0.00 1017.9
20260505040912 54 121 0.0 0.0 0.00 0.00 0.00 1017.6
20260505035842 54 123 0.0 0.0 0.00 0.00 0.00 1017.6
20260505034940 54 126 0.0 0.0 0.00 0.00 0.00 1017.8
20260505033929 54 128 0.0 0.0 0.00 0.00 0.00 1017.8
20260505033039 54 120 0.0 0.0 0.00 0.00 0.00 1017.6
20260505032059 54 110 0.0 0.0 0.00 0.00 0.00 1018.1
20260505031209 54 135 0.0 0.0 0.00 0.00 0.00 1017.7
20260505030232 54 121 0.0 0.0 0.00 0.00 0.00 1017.9
20260505025321 53 133 0.0 0.0 0.00 0.00 0.00 1017.8
20260505024431 53 126 0.0 0.0 0.00 0.00 0.00 1017.6
20260505023519 53 128 0.0 0.0 0.00 0.00 0.00 1017.6
20260505022512 54 125 0.0 0.0 0.00 0.00 0.00 1017.4
20260505021609 54 119 0.0 0.0 0.00 0.00 0.00 1017.6
20260505020719 53 126 0.0 0.0 0.00 0.00 0.00 1017.8
20260505015752 53 126 0.0 0.0 0.00 0.00 0.00 1017.8
20260505014851 54 123 0.0 0.0 0.00 0.00 0.00 1017.7
20260505014049 55 120 0.0 0.0 0.00 0.00 0.00 1018.0
20260505013129 56 131 0.0 0.0 0.00 0.00 0.00 1018.2
20260505012152 56 116 0.0 0.0 0.00 0.00 0.00 1017.9
20260505011209 57 125 0.0 0.0 0.00 0.00 0.00 1018.0
20260505010319 57 115 0.0 3.5 0.00 0.00 0.00 1018.0
20260505005331 57 157 1.7 3.5 0.00 0.00 0.00 1018.1
20260505004412 58 114 3.5 3.5 0.00 0.00 0.00 1017.9
20260505003611 58 53 6.1 7.8 0.00 0.00 0.00 1017.8
20260505002612 58 129 0.0 0.0 0.00 0.00 0.00 1017.8
20260505001617 58 70 3.5 7.8 0.00 0.00 0.00 1018.0
20260505000631 59 330 7.8 7.8 0.00 0.00 0.00 1018.0
20260504235639 59 29 7.8 9.6 0.00 0.00 0.00 1018.1
20260504234701 59 122 1.7 3.5 0.00 0.00 0.00 1018.0
20260504233741 60 91 6.1 7.8 0.00 0.00 0.00 1018.0
20260504232859 60 8 7.8 9.6 0.00 0.00 0.00 1017.9
20260504231859 60 44 7.8 9.6 0.00 0.00 0.00 1017.9
20260504230942 60 81 3.5 3.5 0.00 0.00 0.00 1017.8
20260504230049 60 120 0.0 0.0 0.00 0.00 0.00 1017.9
20260504225049 60 72 6.1 7.8 0.00 0.00 0.00 1018.0
20260504224152 60 65 7.8 7.8 0.00 0.00 0.00 1018.0
20260504223352 60 90 3.5 7.8 0.00 0.00 0.00 1018.0
20260504222542 60 101 3.5 3.5 0.00 0.00 0.00 1017.9
20260504221732 60 105 3.5 3.5 0.00 0.00 0.00 1017.8
20260504220859 60 128 0.0 0.0 0.00 0.00 0.00 1017.6
20260504220031 60 120 0.0 0.0 0.00 0.00 0.00 1017.9
20260504215112 60 183 1.7 3.5 0.00 0.00 0.00 1017.9
20260504214152 60 95 1.7 3.5 0.00 0.00 0.00 1017.8
20260504213312 60 123 0.0 0.0 0.00 0.00 0.00 1017.9
20260504212320 60 129 0.0 0.0 0.00 0.00 0.00 1017.8
20260504211457 60 340 6.1 7.8 0.00 0.00 0.00 1017.7
20260504210620 59 130 0.0 0.0 0.00 0.00 0.00 1017.7
20260504205622 58 137 0.0 0.0 0.00 0.00 0.00 1017.6
20260504204702 58 145 3.5 3.5 0.00 0.00 0.00 1017.5
20260504203807 58 141 0.0 0.0 0.00 0.00 0.00 1017.6
20260504202951 59 140 0.0 0.0 0.00 0.00 0.00 1017.6
20260504202052 59 140 0.0 0.0 0.00 0.00 0.00 1017.5
20260504201149 60 140 0.0 0.0 0.00 0.00 0.00 1017.8
20260504200159 60 141 0.0 0.0 0.00 0.00 0.00 1017.7
20260504195304 61 140 1.7 3.5 0.00 0.00 0.00 1017.7
20260504194412 62 132 0.0 0.0 0.00 0.00 0.00 1017.5
20260504193412 62 131 0.0 0.0 0.00 0.00 0.00 1017.6
20260504192419 63 129 0.0 3.5 0.00 0.00 0.00 1017.4
20260504191512 63 151 3.5 7.8 0.00 0.00 0.00 1017.6
20260504190529 63 183 0.0 3.5 0.00 0.00 0.00 1017.8
20260504185700 64 161 3.5 7.8 0.00 0.00 0.00 1017.6
20260504184859 65 153 1.7 7.8 0.00 0.00 0.00 1017.5
20260504183954 63 146 3.5 3.5 0.00 0.00 0.00 1017.4
20260504183131 62 135 0.0 0.0 0.00 0.00 0.00 1017.1
20260504182312 63 135 0.0 0.0 0.00 0.00 0.00 1017.2
20260504181329 64 136 0.0 0.0 0.00 0.00 0.00 1016.8
20260504180411 65 136 0.0 0.0 0.00 0.00 0.00 1016.9
20260504175439 67 136 0.0 0.0 0.00 0.00 0.00 1016.7
20260504174549 68 135 0.0 0.0 0.00 0.00 0.00 1016.5
20260504173744 69 135 0.0 0.0 0.00 0.00 0.00 1016.7
20260504172940 70 143 0.0 0.0 0.00 0.00 0.00 1016.5
20260504172059 71 136 0.0 0.0 0.00 0.00 0.00 1016.5
20260504171052 72 163 3.5 7.8 0.00 0.00 0.00 1016.4
20260504170219 73 143 3.5 3.5 0.00 0.00 0.00 1016.6
20260504150252 78 180 19.1 29.5 0.00 0.00 0.00 1016.8
20260504140842 78 193 9.6 13.9 0.00 0.00 0.00 1017.0
20260504130449 79 175 11.3 17.4 0.00 0.00 0.00 1017.2
20260504110135 76 129 15.6 21.7 0.00 0.00 0.00 1018.0
20260504100535 76 172 7.8 9.6 0.00 0.00 0.00 1018.3
20260504090105 72 114 21.7 29.5 0.00 0.00 0.00 1018.4
20260504081258 69 151 25.2 29.5 0.00 0.00 0.00 1018.5
20260504080415 69 123 23.5 29.5 0.00 0.00 0.00 1018.9
20260504060234 62 178 21.7 33.0 0.00 0.00 0.00 1018.7